Find EO-1

NORAD ID: 26619 Int'l Des: 2000-075 Owner: GSFC Country: US operational
LEOCIRCULARRETROGRADESSO

Current View

Loading 3D Globe...

About EO-1

Description loading...

Upcoming Passes

Passes for default location (London). Set your location on the main map for personalized predictions.

Altitude History

Loading altitude history...

Two-Line Element Set

1 26619U 00075A 26150.83205528 .00000858 00000-0 15409-3 0 9996
2 26619 98.1162 107.8006 0008983 173.9319 186.1997 14.69173398644046
Epoch: May 30, 2026 • Age: 18 hours

Current Status

Altitude 672.1 km
Velocity 7.52 km/s
Sub-Earth Point 25.17°N, 4.68°E
Launch Date Nov 21, 2000
Age 25.5 years
Type other

Technical Details

Classification Payload
Mass 588.00 kg
Dry Mass 566.00 kg
Total Mass 588.00 kg
Length 0.70 m
Diameter 1.30 m
Span 5.00 m
Shape Hex Cyl + Pan
Manufacturer SWALES
Bus Type ATK-A200
Phase Status In Orbit
Owner/State GSFC/US

Most Searched